SCP
-0 -0 -0 -0 0 0 0 0 0 0 0 0 0 0 0 0 0 0 0 0 0 0
-0 -0 -0 -0 0 0 0 0 0 0 0 0 0 0 0 0 0 0 0 0 0 0
0 -0 0 0 0 0 0 0 0 0 0 0 0 0 0 0 0 0 0 0 0 0
0 0 0 -0 0 0 0 0 0 0 0 0 0 0 0 0 0 0 0 0 0 0
0 0 0 0 0 0 -0 0 0 0 0 0 0 0 0 0 0 0 0 0 0 0
0 0 0 0 0 0 0 0 0 0 0 0 0 0 0 0 0 0 0 0 0 0
0 0 0 0 0 0 0 0 0 0 0 0 0 0 0 0 0 0 0 0 0 0
0 0 0 0 0 0 0 0 0 0 0 0 0 -0 0 0 0 0 0 0 -0 -0
0 0 0 0 0 0 0 0 0 0 0 0 0 0 0 0 0 0 0 0 -0 -0
0 0 0 0 0 0 0 0 0 0 0 0 0 0 0 0 0 0 0 -0 -0 -0
0 0 0 0 0 0 0 0 0 0 0 0 -0 0 0 0 0 0 0 0 -0 -0
0 0 0 0 0 0 0 0 0 0 0 0 0 0 0 0 0 0 0 0 -0 -0
0 0 0 0 0 0 0 0 0 0 0 0 0 0 0 0 0 0 0 0 0 0
0 0 0 0 0 0 0 0 0 0 0 0 0 0 0 0 0 0 0 0 0 -0
Wind_Speed_500mb
47 48 49 50 38 34 40 41 36 39 43 45 41 33 21 25 26 24 24 24 25 24
45 45 48 48 49 48 48 47 44 40 37 37 30 29 29 27 30 29 31 28 24 21
38 40 40 37 39 41 41 38 36 37 39 40 40 37 36 37 34 26 26 25 20 21
38 40 39 40 41 41 41 41 42 43 43 41 39 35 30 32 29 24 26 27 22 25
36 36 37 40 41 38 37 36 36 36 34 33 31 30 27 30 30 27 28 31 29 31
27 26 30 31 32 31 28 27 26 24 26 30 30 29 29 28 29 31 34 34 32 34
24 24 25 26 23 24 21 20 20 22 25 27 27 25 27 28 31 33 34 33 33 33
23 22 20 19 19 20 22 22 22 21 23 25 26 28 28 30 31 30 31 33 32 33
19 20 19 18 18 18 20 21 20 19 18 19 25 30 31 28 28 30 31 31 32 31
21 20 20 20 21 20 19 19 18 17 16 18 24 27 27 25 23 25 28 29 29 28
25 23 23 23 23 23 20 20 18 17 16 17 20 23 24 24 22 23 25 25 24 23
29 27 27 26 23 22 23 24 22 21 20 21 23 24 23 21 22 23 24 24 22 22
31 30 29 28 25 23 25 24 24 23 22 20 18 17 18 19 18 16 18 21 21 17
37 34 34 33 31 28 29 29 28 24 23 22 19 16 17 19 20 19 18 19 18 16
Wind_Direction_500mb
100 104 110 117 124 126 124 114 122 129 131 121 123 123 119 125 118 121 120 113 107 104
92 99 104 112 117 119 117 120 123 125 125 126 130 127 133 128 118 119 113 108 105 97
93 95 99 101 102 106 108 111 113 114 114 113 113 115 118 114 113 115 109 98 88 84
90 93 98 101 100 103 107 109 112 113 114 114 114 118 121 118 117 117 108 101 95 89
95 97 100 101 102 106 110 112 113 117 118 117 119 118 116 116 113 108 104 95 92 87
101 105 105 105 108 110 110 114 116 118 119 120 120 118 113 109 108 108 103 99 94 90
119 117 116 121 125 122 124 124 127 129 127 122 118 116 112 111 112 108 103 100 98 95
138 136 138 140 138 141 140 139 139 139 134 129 127 118 116 118 113 109 107 102 99 92
158 156 157 159 157 153 151 146 147 147 140 132 130 128 126 120 119 119 112 104 96 87
178 176 174 173 165 165 167 157 156 158 153 152 142 131 129 125 121 115 107 98 90 85
195 195 190 182 176 184 176 169 176 172 164 160 149 140 142 137 131 119 112 104 100 92
206 205 202 194 193 195 192 186 185 182 179 176 168 161 159 154 146 143 131 124 114 97
212 213 212 208 208 206 205 204 202 199 194 192 183 174 172 164 160 149 141 129 116 109
218 216 213 218 216 214 213 211 213 213 212 205 193 188 187 184 178 170 158 136 126 107
Wind_Speed_850mb
47 48 49 50 38 34 40 41 36 39 43 45 41 33 21 25 26 24 24 24 25 24
45 45 48 48 49 48 48 47 44 40 37 37 30 29 29 27 30 29 31 28 24 21
38 40 40 37 39 41 41 38 36 37 39 40 40 37 36 37 34 26 26 25 20 21
38 40 39 40 41 41 41 41 42 43 43 41 39 35 30 32 29 24 26 27 22 25
36 36 37 40 41 38 37 36 36 36 34 33 31 30 27 30 30 27 28 31 29 31
27 26 30 31 32 31 28 27 26 24 26 30 30 29 29 28 29 31 34 34 32 34
24 24 25 26 23 24 21 20 20 22 25 27 27 25 27 28 31 33 34 33 33 33
23 22 20 19 19 20 22 22 22 21 23 25 26 28 28 30 31 30 31 33 32 33
19 20 19 18 18 18 20 21 20 19 18 19 25 30 31 28 28 30 31 31 32 31
21 20 20 20 21 20 19 19 18 17 16 18 24 27 27 25 23 25 28 29 29 28
25 23 23 23 23 23 20 20 18 17 16 17 20 23 24 24 22 23 25 25 24 23
29 27 27 26 23 22 23 24 22 21 20 21 23 24 23 21 22 23 24 24 22 22
31 30 29 28 25 23 25 24 24 23 22 20 18 17 18 19 18 16 18 21 21 17
37 34 34 33 31 28 29 29 28 24 23 22 19 16 17 19 20 19 18 19 18 16
Wind_Direction_850mb
100 104 110 117 124 126 124 114 122 129 131 121 123 123 119 125 118 121 120 113 107 104
92 99 104 112 117 119 117 120 123 125 125 126 130 127 133 128 118 119 113 108 105 97
93 95 99 101 102 106 108 111 113 114 114 113 113 115 118 114 113 115 109 98 88 84
90 93 98 101 100 103 107 109 112 113 114 114 114 118 121 118 117 117 108 101 95 89
95 97 100 101 102 106 110 112 113 117 118 117 119 118 116 116 113 108 104 95 92 87
101 105 105 105 108 110 110 114 116 118 119 120 120 118 113 109 108 108 103 99 94 90
119 117 116 121 125 122 124 124 127 129 127 122 118 116 112 111 112 108 103 100 98 95
138 136 138 140 138 141 140 139 139 139 134 129 127 118 116 118 113 109 107 102 99 92
158 156 157 159 157 153 151 146 147 147 140 132 130 128 126 120 119 119 112 104 96 87
178 176 174 173 165 165 167 157 156 158 153 152 142 131 129 125 121 115 107 98 90 85
195 195 190 182 176 184 176 169 176 172 164 160 149 140 142 137 131 119 112 104 100 92
206 205 202 194 193 195 192 186 185 182 179 176 168 161 159 154 146 143 131 124 114 97
212 213 212 208 208 206 205 204 202 199 194 192 183 174 172 164 160 149 141 129 116 109
218 216 213 218 216 214 213 211 213 213 212 205 193 188 187 184 178 170 158 136 126 107